• In Czech Republic
  • List of Countries
  • For 7 days
  • Water Temperature
  • Satellite Maps
  • Weather Map
  • Weather Widgets
  • user-avatar
    Login

    Hourly Weather Saint John's

    Today, 20 February, Tuesday

    Time Temperature Precipitation Wind Pressure Humidity
    00:00 -5°C° 0 mm 4 mps 767 mmHg 76%
    01:00 -6°C° 0 mm 5 mps 766 mmHg 77%
    02:00 -5°C° 0 mm 4 mps 766 mmHg 81%
    03:00 -6°C° 0 mm 5 mps 765 mmHg 82%
    04:00 -6°C° 0 mm 5 mps 765 mmHg 84%
    05:00 -5°C° 0 mm 6 mps 764 mmHg 85%
    06:00 -5°C° 0 mm 6 mps 764 mmHg 84%
    07:00 -4°C° 0 mm 7 mps 764 mmHg 83%
    08:00 -4°C° 0 mm 6 mps 764 mmHg 82%
    09:00 -3°C° 0 mm 6 mps 763 mmHg 81%
    10:00 -2°C° 0 mm 6 mps 763 mmHg 79%
    11:00 -1°C° 0 mm 7 mps 763 mmHg 78%
    12:00 -1°C° 0 mm 6 mps 763 mmHg 77%
    13:00 0°C° 0 mm 5 mps 763 mmHg 76%
    14:00 0°C° 0 mm 5 mps 762 mmHg 76%
    15:00 0°C° 0 mm 4 mps 763 mmHg 79%
    16:00 -1°C° 0 mm 4 mps 763 mmHg 82%
    17:00 0°C° 0 mm 3 mps 763 mmHg 85%
    18:00 -2°C° 0 mm 4 mps 764 mmHg 85%
    19:00 -4°C° 0 mm 6 mps 764 mmHg 86%
    20:00 -6°C° 0 mm 7 mps 765 mmHg 87%
    21:00 -7°C° 0 mm 7 mps 765 mmHg 85%
    22:00 -8°C° 0 mm 8 mps 766 mmHg 83%
    23:00 -10°C° 0 mm 8 mps 766 mmHg 81%

    Tomorrow, 21 February, Wednesday

    Time Temperature Precipitation Wind Pressure Humidity
    00:00 -10°C° 0 mm 8 mps 766 mmHg 79%
    01:00 -11°C° 0 mm 7 mps 767 mmHg 76%
    02:00 -11°C° 0 mm 7 mps 767 mmHg 74%
    03:00 -12°C° 0 mm 7 mps 767 mmHg 72%
    04:00 -11°C° 0 mm 6 mps 767 mmHg 70%
    05:00 -11°C° 0 mm 6 mps 767 mmHg 68%
    06:00 -11°C° 0 mm 5 mps 767 mmHg 67%
    07:00 -10°C° 0 mm 4 mps 767 mmHg 67%
    08:00 -9°C° 0 mm 3 mps 767 mmHg 67%
    09:00 -8°C° 0 mm 3 mps 766 mmHg 65%
    10:00 -8°C° 0 mm 3 mps 766 mmHg 64%
    11:00 -7°C° 0 mm 3 mps 765 mmHg 63%
    12:00 -7°C° 0 mm 4 mps 764 mmHg 65%
    13:00 -6°C° 0 mm 5 mps 763 mmHg 67%
    14:00 -5°C° 0 mm 5 mps 762 mmHg 68%
    15:00 -7°C° 0.3 mm 7 mps 761 mmHg 76%
    16:00 -7°C° 0.3 mm 8 mps 760 mmHg 83%
    17:00 -8°C° 0.3 mm 9 mps 758 mmHg 91%
    18:00 -7°C° 1.2 mm 10 mps 756 mmHg 91%
    19:00 -6°C° 1.2 mm 11 mps 755 mmHg 90%
    20:00 -5°C° 1.2 mm 12 mps 753 mmHg 90%
    21:00 -2°C° 0.4 mm 12 mps 751 mmHg 91%
    22:00 -1°C° 0.4 mm 12 mps 749 mmHg 93%
    23:00 0°C° 0.4 mm 12 mps 747 mmHg 94%

    Day after tomorrow, 22 February, Thursday

    Time Temperature Precipitation Wind Pressure Humidity
    00:00 +2°C° 0.2 mm 12 mps 746 mmHg 93%
    01:00 +2°C° 0.2 mm 11 mps 744 mmHg 93%
    02:00 +2°C° 0.2 mm 11 mps 743 mmHg 92%
    03:00 +1°C° 0 mm 11 mps 744 mmHg 85%
    04:00 -1°C° 0 mm 12 mps 745 mmHg 78%
    05:00 -2°C° 0 mm 12 mps 745 mmHg 71%
    06:00 -3°C° 0 mm 12 mps 747 mmHg 69%
    07:00 -5°C° 0 mm 12 mps 748 mmHg 66%
    08:00 -6°C° 0 mm 12 mps 749 mmHg 64%
    09:00 -7°C° 0 mm 12 mps 751 mmHg 63%
    10:00 -7°C° 0 mm 12 mps 752 mmHg 61%
    11:00 -9°C° 0 mm 13 mps 753 mmHg 60%
    12:00 -8°C° 0 mm 12 mps 754 mmHg 60%
    13:00 -8°C° 0 mm 11 mps 755 mmHg 61%
    14:00 -8°C° 0 mm 11 mps 756 mmHg 61%
    15:00 -9°C° 0 mm 10 mps 756 mmHg 62%
    16:00 -10°C° 0 mm 10 mps 757 mmHg 63%
    17:00 -10°C° 0 mm 9 mps 757 mmHg 64%
    18:00 -10°C° 0 mm 9 mps 758 mmHg 64%
    19:00 -11°C° 0 mm 9 mps 759 mmHg 64%
    20:00 -11°C° 0 mm 9 mps 759 mmHg 64%
    21:00 -11°C° 0 mm 9 mps 759 mmHg 63%
    22:00 -12°C° 0 mm 9 mps 759 mmHg 63%
    23:00 -13°C° 0 mm 10 mps 760 mmHg 62%

    23 February, Friday

    Time Temperature Precipitation Wind Pressure Humidity
    00:00 -14°C° 0 mm 10 mps 760 mmHg 62%
    01:00 -14°C° 0 mm 10 mps 760 mmHg 62%
    02:00 -14°C° 0 mm 11 mps 760 mmHg 63%
    03:00 -16°C° 0 mm 11 mps 760 mmHg 63%
    04:00 -16°C° 0 mm 11 mps 760 mmHg 63%
    05:00 -16°C° 0 mm 11 mps 760 mmHg 63%
    06:00 -16°C° 0 mm 11 mps 761 mmHg 62%
    07:00 -17°C° 0 mm 11 mps 761 mmHg 61%
    08:00 -17°C° 0 mm 11 mps 762 mmHg 61%
    09:00 -17°C° 0 mm 11 mps 762 mmHg 58%
    10:00 -17°C° 0 mm 10 mps 762 mmHg 55%
    11:00 -15°C° 0 mm 10 mps 762 mmHg 51%
    12:00 -15°C° 0 mm 10 mps 762 mmHg 50%
    13:00 -14°C° 0 mm 10 mps 761 mmHg 49%
    14:00 -14°C° 0 mm 10 mps 761 mmHg 47%
    15:00 -14°C° 0 mm 10 mps 761 mmHg 49%
    16:00 -14°C° 0 mm 10 mps 761 mmHg 51%
    17:00 -14°C° 0 mm 10 mps 761 mmHg 52%
    18:00 -14°C° 0 mm 10 mps 761 mmHg 54%
    19:00 -14°C° 0 mm 9 mps 761 mmHg 56%
    20:00 -14°C° 0 mm 9 mps 761 mmHg 58%
    21:00 -14°C° 0 mm 9 mps 761 mmHg 60%
    22:00 -14°C° 0 mm 9 mps 761 mmHg 62%
    23:00 -14°C° 0 mm 9 mps 761 mmHg 64%

    24 February, Saturday

    Time Temperature Precipitation Wind Pressure Humidity
    00:00 -13°C° 0 mm 8 mps 760 mmHg 65%
    01:00 -13°C° 0 mm 8 mps 760 mmHg 66%
    02:00 -13°C° 0 mm 8 mps 759 mmHg 68%
    03:00 -13°C° 0 mm 8 mps 759 mmHg 69%
    04:00 -13°C° 0 mm 8 mps 759 mmHg 70%
    05:00 -13°C° 0 mm 8 mps 758 mmHg 71%
    06:00 -12°C° 0 mm 8 mps 758 mmHg 70%
    07:00 -11°C° 0 mm 8 mps 758 mmHg 70%
    08:00 -11°C° 0 mm 8 mps 758 mmHg 70%
    09:00 -10°C° 0 mm 8 mps 757 mmHg 70%
    10:00 -8°C° 0 mm 8 mps 757 mmHg 70%
    11:00 -7°C° 0 mm 8 mps 756 mmHg 71%
    12:00 -7°C° 0.1 mm 8 mps 755 mmHg 72%
    13:00 -7°C° 0.1 mm 8 mps 755 mmHg 74%
    14:00 -7°C° 0.1 mm 8 mps 754 mmHg 76%
    15:00 -6°C° 0.1 mm 8 mps 753 mmHg 78%
    16:00 -6°C° 0.1 mm 8 mps 753 mmHg 80%
    17:00 -6°C° 0.1 mm 8 mps 752 mmHg 82%
    18:00 -6°C° 0.2 mm 7 mps 752 mmHg 85%
    19:00 -6°C° 0.2 mm 7 mps 752 mmHg 87%
    20:00 -5°C° 0.2 mm 6 mps 751 mmHg 90%
    21:00 -5°C° 0.5 mm 6 mps 751 mmHg 92%
    22:00 -5°C° 0.5 mm 5 mps 750 mmHg 94%
    23:00 -3°C° 0.5 mm 4 mps 750 mmHg 96%

    25 February, Sunday

    Time Temperature Precipitation Wind Pressure Humidity
    00:00 -3°C° 0.5 mm 4 mps 749 mmHg 94%
    01:00 -3°C° 0.5 mm 4 mps 749 mmHg 93%
    02:00 -2°C° 0.5 mm 3 mps 749 mmHg 91%
    03:00 -5°C° 0.1 mm 6 mps 749 mmHg 87%
    04:00 -6°C° 0.1 mm 8 mps 750 mmHg 83%
    05:00 -8°C° 0.1 mm 11 mps 751 mmHg 79%
    06:00 -9°C° 0 mm 11 mps 752 mmHg 78%
    07:00 -10°C° 0 mm 12 mps 753 mmHg 76%
    08:00 -11°C° 0 mm 12 mps 754 mmHg 75%
    09:00 -11°C° 0 mm 12 mps 755 mmHg 72%
    10:00 -12°C° 0 mm 12 mps 756 mmHg 70%
    11:00 -12°C° 0 mm 12 mps 758 mmHg 67%
    12:00 -12°C° 0 mm 12 mps 758 mmHg 67%
    13:00 -13°C° 0 mm 11 mps 759 mmHg 67%
    14:00 -13°C° 0 mm 11 mps 760 mmHg 67%
    15:00 -13°C° 0 mm 11 mps 760 mmHg 69%
    16:00 -13°C° 0 mm 11 mps 761 mmHg 71%
    17:00 -14°C° 0 mm 10 mps 761 mmHg 73%
    18:00 -13°C° 0 mm 10 mps 762 mmHg 73%
    19:00 -12°C° 0 mm 9 mps 762 mmHg 73%
    20:00 -12°C° 0 mm 9 mps 762 mmHg 73%
    21:00 -12°C° 0 mm 8 mps 762 mmHg 73%
    22:00 -12°C° 0 mm 7 mps 762 mmHg 73%
    23:00 -12°C° 0 mm 7 mps 762 mmHg 73%
    Show more